Theta_e
335 333 330 329 331 333 333 333 333 332 332 332 332 332 332 332 332 332 333 333 334 334 334 334 334 334 333 334 333 333 333 333 332 332 331 332 332 332 331 331 331 330
334 334 332 329 331 334 334 333 332 331 331 332 332 332 332 332 332 333 333 333 333 333 333 332 333 333 333 333 333 333 332 332 332 332 332 331 331 332 332 331 331 330
335 334 333 332 332 334 333 332 332 331 331 332 332 331 332 332 332 333 333 332 333 332 332 331 331 332 332 333 333 332 332 332 332 332 332 331 330 330 331 331 330 330
334 334 334 334 333 333 333 332 332 331 331 331 332 331 331 332 332 332 332 332 332 331 331 330 330 331 331 332 332 332 332 332 332 333 332 331 331 330 330 330 330 330
333 333 333 333 333 333 333 332 331 330 331 331 332 331 331 332 331 331 332 332 332 331 330 329 329 330 331 332 332 333 333 332 333 332 332 331 331 331 330 330 330 331
332 332 333 334 333 332 332 332 330 330 330 331 331 330 331 331 331 331 331 331 330 330 330 329 329 329 331 332 332 332 332 332 332 333 332 332 332 331 331 331 330 331
333 333 334 333 333 332 332 332 330 330 331 331 331 330 330 331 330 330 330 330 329 330 330 329 328 329 330 331 332 331 331 332 332 333 332 332 332 331 330 331 331 330
333 334 333 333 331 331 332 331 330 330 331 331 330 330 330 330 330 330 330 329 329 329 329 329 328 328 329 330 330 330 330 331 332 332 332 332 331 330 330 331 331 330
331 332 332 333 331 331 331 331 330 330 330 330 330 329 329 329 329 329 329 329 329 329 329 328 328 328 328 328 328 328 330 330 331 331 331 331 331 330 329 331 331 330
329 330 332 333 331 331 331 330 330 330 329 329 330 329 329 329 329 328 329 329 329 329 329 328 328 328 327 327 327 328 329 329 330 330 330 331 330 329 329 331 331 330
328 328 330 331 329 330 330 329 329 330 329 329 330 329 329 329 329 329 329 328 327 327 328 328 327 327 327 326 327 328 328 328 329 329 329 330 330 329 330 330 330 329
329 327 328 329 328 328 329 328 328 328 328 329 329 329 329 329 329 328 328 327 326 327 327 328 327 326 326 326 326 327 326 327 327 327 328 328 329 329 329 330 330 329
328 327 328 329 329 328 327 328 328 328 327 328 329 329 329 329 328 328 328 327 326 326 327 327 326 325 325 324 324 324 324 325 326 326 326 327 327 327 329 330 330 329
326 327 327 328 328 327 327 328 329 328 327 326 327 328 329 328 328 327 326 326 326 326 325 326 325 325 324 322 322 322 323 323 324 324 325 326 326 327 328 329 329 328
325 326 326 327 327 327 327 328 328 327 326 326 325 325 327 327 327 325 324 323 325 325 325 324 324 324 323 321 320 322 323 323 323 323 324 325 326 327 327 328 328 326
325 326 326 326 326 326 327 327 326 326 326 326 325 323 325 326 325 322 321 322 324 324 324 324 322 322 321 320 320 321 321 322 322 323 324 325 325 327 327 327 326 324
325 326 326 325 325 326 327 326 325 326 325 326 326 323 323 326 324 321 320 321 322 324 324 323 322 322 321 320 320 320 319 320 320 321 323 324 325 326 325 324 323 322
324 325 326 326 325 325 326 325 325 325 324 325 326 323 322 325 324 321 320 320 322 323 323 322 322 322 321 320 319 319 319 319 319 321 323 324 325 324 322 321 321 320
322 324 326 326 325 324 326 325 324 324 323 324 324 321 320 323 323 321 320 320 321 322 322 321 321 321 321 319 317 317 318 318 320 322 323 324 324 323 321 320 320 319
318 321 323 324 324 324 324 324 323 322 321 322 321 318 318 321 321 319 319 319 319 320 321 320 320 321 320 318 317 318 318 318 320 322 323 323 322 321 320 320 319 318
315 317 320 322 323 323 323 322 322 320 319 319 318 315 316 319 318 316 317 317 318 319 319 319 320 319 319 318 318 318 318 319 320 322 321 321 319 319 319 318 318 317
312 313 315 317 318 320 320 319 318 317 315 315 313 312 313 314 315 314 315 315 317 318 318 319 319 319 319 318 318 318 319 319 320 320 320 319 319 318 318 318 319 319
310 311 311 312 312 314 314 314 313 312 311 311 310 309 309 309 311 312 312 314 316 317 318 319 318 319 319 319 319 319 319 319 320 320 319 319 319 318 319 319 319 318
308 309 309 309 308 308 308 309 309 308 308 308 308 307 307 306 308 310 311 312 314 315 317 318 318 318 319 319 319 319 319 319 319 320 319 319 319 318 318 318 317 317
307 308 308 308 307 306 306 306 306 306 306 306 306 305 305 305 306 308 309 309 311 313 314 316 317 317 318 319 319 319 320 320 320 319 319 318 318 317 316 316 316 316
307 307 307 307 307 306 305 304 305 305 305 306 305 303 303 303 303 304 305 305 307 309 311 313 314 315 316 317 318 319 319 319 318 318 316 315 315 315 314 314 315 316
Wind_Speed
21 20 20 20 22 21 20 20 22 22 22 23 23 22 21 20 20 19 19 18 17 17 17 18 18 18 18 18 17 17 17 17 17 16 16 17 17 17 17 18 19 17
22 21 20 20 21 20 19 20 22 22 23 23 23 21 20 20 20 19 19 18 17 17 17 18 18 17 17 18 18 17 17 17 17 16 16 16 17 17 17 17 17 16
23 23 21 21 21 21 20 20 21 22 22 23 22 20 20 21 21 20 19 19 18 18 17 17 17 17 17 18 18 17 18 18 17 16 15 15 15 16 17 17 16 16
24 24 23 22 22 21 20 21 21 22 22 23 22 20 21 22 21 20 20 19 19 18 17 17 17 17 17 17 18 17 17 17 16 16 15 14 14 15 15 16 16 16
25 25 24 24 23 22 21 21 21 22 23 24 23 23 24 24 21 21 21 20 19 19 18 18 17 17 17 17 18 18 17 16 16 16 15 14 14 14 15 15 15 15
24 23 23 22 21 21 22 21 21 23 24 23 24 25 26 24 23 22 22 21 20 20 20 19 17 16 16 17 17 17 16 16 16 17 16 15 14 14 15 15 15 15
20 20 20 20 20 20 20 20 21 22 23 24 25 26 25 24 24 23 22 22 20 20 20 19 18 17 16 17 17 17 17 16 17 17 16 14 14 14 14 15 15 14
19 19 19 19 19 19 20 21 22 22 22 24 26 26 25 25 24 23 22 21 20 19 20 19 18 17 16 17 17 16 17 17 17 17 16 15 14 14 15 15 15 15
20 20 20 20 20 21 22 23 24 23 22 25 27 26 27 26 24 23 22 22 20 19 19 19 17 17 17 17 17 16 16 17 17 17 16 16 15 15 15 16 15 15
19 19 21 23 23 24 25 25 25 24 24 26 28 28 28 26 24 24 23 22 22 20 19 19 18 17 17 17 16 16 16 17 17 16 16 16 16 15 15 16 16 16
18 17 19 22 22 21 23 25 25 25 27 29 30 29 29 27 25 25 25 23 21 20 20 20 19 18 18 17 16 16 16 16 16 15 15 15 15 14 15 15 15 15
18 17 18 21 21 20 19 20 22 25 27 29 30 31 29 28 28 27 26 24 21 21 21 20 19 19 17 16 16 16 15 15 15 15 14 14 14 14 14 15 15 14
16 18 20 22 23 22 19 20 23 26 26 27 29 32 31 29 29 28 26 24 23 22 20 20 20 19 17 16 15 15 16 17 17 16 15 14 14 14 14 16 16 13
17 21 22 22 22 21 20 22 26 28 28 26 26 30 32 29 28 28 27 25 24 22 20 21 21 19 18 16 14 14 15 17 18 18 16 15 14 13 14 15 15 11
17 21 22 20 21 21 20 24 27 27 29 27 23 24 29 31 28 27 26 25 25 23 21 22 20 19 19 17 13 12 12 13 16 17 17 16 13 12 12 13 13 10
16 19 20 21 22 22 22 24 27 27 27 28 26 23 25 30 30 27 26 26 26 24 22 22 20 19 20 18 15 13 12 13 14 15 16 16 13 12 11 12 12 11
13 17 18 20 23 23 24 25 27 29 27 29 31 27 25 30 31 27 27 26 25 25 23 21 21 20 20 17 16 15 13 13 13 15 17 16 14 13 12 13 15 15
9 15 18 20 22 24 26 25 26 29 28 28 31 28 26 30 31 28 27 26 25 24 23 22 22 21 19 17 16 16 15 13 13 15 17 17 16 16 16 16 19 20
5 11 18 21 21 23 27 27 27 28 28 28 29 27 27 30 30 28 27 26 25 25 23 23 23 22 20 18 16 16 15 14 13 16 19 19 18 19 18 18 20 21
10 3 12 18 21 23 25 27 28 26 25 26 27 25 27 30 29 27 27 26 25 25 24 22 22 22 21 19 16 15 14 14 15 17 19 19 19 20 20 20 20 20
16 9 1 10 18 23 25 26 27 25 24 26 28 26 28 30 29 27 27 25 24 24 23 22 21 22 22 20 18 16 15 15 17 19 19 19 19 20 20 20 19 18
21 15 10 6 11 20 23 24 24 24 23 25 26 25 26 28 28 26 25 25 24 23 23 22 21 21 21 20 19 18 17 18 19 20 21 21 21 20 20 20 19 18
24 20 16 14 12 15 20 22 23 24 23 23 24 24 24 25 27 26 24 24 24 24 24 24 22 21 21 21 20 20 19 20 21 22 22 22 21 20 20 20 19 18
25 23 21 19 17 16 18 23 25 24 23 24 25 26 25 24 26 27 24 23 24 23 24 25 24 22 22 23 23 22 22 23 23 22 22 20 20 20 19 18 18 16
25 24 22 21 20 18 18 23 28 28 26 26 27 27 27 25 26 28 27 25 24 23 22 23 23 21 21 22 23 22 22 24 24 24 22 20 19 19 16 14 13 12
25 24 22 21 21 21 21 24 28 29 29 29 28 28 28 26 26 28 29 27 25 24 23 22 21 19 18 19 21 22 22 22 23 23 22 19 15 13 11 9 9 9
Wind_Direction
225 224 223 225 225 224 222 215 209 209 210 208 205 204 204 203 199 196 196 196 196 196 198 201 202 202 202 202 204 206 207 209 211 212 213 215 218 221 221 218 218 222
224 225 224 223 223 223 221 216 211 210 210 207 203 204 202 198 196 194 194 194 194 194 196 198 200 202 205 207 207 207 207 208 210 211 211 213 217 219 218 218 218 220
225 225 224 222 221 220 218 218 215 212 210 206 204 206 202 194 192 194 195 195 195 195 197 199 200 204 207 207 206 206 207 209 211 211 210 211 215 217 218 219 218 218
224 225 225 225 223 218 216 215 213 211 207 204 204 204 199 194 194 196 197 198 197 196 198 198 199 202 206 207 206 207 210 213 213 211 208 207 211 214 215 215 215 215
224 225 225 226 222 216 215 212 207 205 203 203 203 201 196 195 195 196 197 199 198 198 197 196 197 200 204 207 208 209 211 213 213 210 208 205 208 214 214 212 211 213
223 224 222 222 219 215 214 211 205 202 202 202 202 199 195 194 195 197 198 198 199 199 196 193 194 195 198 203 207 208 210 211 211 209 208 209 211 215 215 213 212 212
224 222 219 219 219 216 214 209 204 203 204 203 199 197 195 193 195 197 197 198 198 199 195 192 192 191 193 198 202 206 210 212 211 209 209 212 214 216 213 212 213 212
229 222 217 217 219 220 213 204 201 203 205 200 197 197 196 193 194 196 197 198 197 197 194 192 193 192 193 196 198 204 210 211 211 211 211 211 213 216 211 209 213 212
228 221 216 212 213 217 214 204 200 200 200 199 199 199 196 193 194 195 197 197 197 197 196 194 196 196 196 197 199 203 207 208 210 212 211 210 212 214 210 210 213 209
232 222 220 214 208 212 214 208 202 198 198 201 201 197 194 193 193 193 194 195 197 198 197 196 197 199 199 198 200 201 201 201 205 209 210 210 212 213 211 213 213 207
248 233 228 225 216 215 218 211 204 200 199 200 199 195 193 192 191 190 191 194 197 196 194 195 198 200 201 199 198 200 199 200 202 205 209 211 213 216 214 214 213 210
256 240 234 237 230 221 222 215 205 202 198 196 197 194 191 191 191 191 191 193 195 194 194 198 199 198 198 196 197 199 199 200 201 204 210 214 217 218 216 214 211 211
258 244 236 237 229 218 218 215 208 204 197 194 196 194 191 192 192 190 191 194 195 192 194 199 198 196 195 194 196 201 204 205 205 208 212 218 223 220 218 216 210 208
257 250 244 237 224 214 213 211 206 199 192 193 197 193 191 192 191 190 192 195 193 188 188 193 196 198 194 189 190 198 206 207 208 211 214 219 224 217 216 216 210 208
257 255 254 242 225 214 208 203 201 194 187 191 199 198 192 188 188 192 193 192 189 185 185 188 192 195 188 180 180 185 189 192 196 204 211 216 216 206 205 208 204 200
257 256 254 241 224 215 204 196 196 192 186 189 197 203 197 187 187 192 191 187 185 184 186 186 186 188 184 179 179 180 178 179 187 199 208 210 204 191 188 188 181 172
257 250 247 233 217 207 197 191 192 191 186 187 193 201 199 189 187 191 189 187 186 184 187 186 184 185 185 184 186 187 188 188 191 200 201 197 188 176 168 165 162 159
262 239 237 229 211 197 190 187 188 188 185 185 190 195 194 187 187 189 187 187 186 185 187 187 184 185 187 189 190 192 196 198 197 198 191 182 176 169 159 156 156 154
313 232 228 225 208 191 187 187 185 184 182 182 187 190 186 182 185 186 184 184 183 185 187 187 185 185 187 189 189 190 194 197 196 191 182 175 172 169 163 160 159 155
6 285 222 214 200 185 182 182 179 178 176 177 181 182 177 176 178 178 177 177 178 181 183 183 183 185 187 187 186 184 186 188 186 181 174 169 167 167 166 164 163 160
19 21 116 196 188 178 173 172 171 170 169 171 172 171 169 170 170 169 167 166 167 171 174 174 175 178 181 181 179 178 178 178 175 169 164 160 157 158 158 157 157 156
31 34 48 91 156 163 159 158 159 159 160 163 161 158 157 157 157 156 155 152 152 156 160 161 160 165 171 172 174 177 175 169 163 159 155 153 149 147 146 144 144 144
40 43 50 65 92 125 135 139 141 143 147 151 148 141 138 137 139 140 140 140 141 143 147 148 146 150 159 162 166 172 172 166 161 156 153 151 146 144 144 142 140 140
46 48 52 62 70 86 109 122 127 128 132 136 133 128 124 122 125 128 127 128 131 133 136 138 137 139 147 153 159 165 167 165 162 154 148 145 143 141 140 139 139 138
50 54 56 63 69 74 89 108 116 120 124 126 122 119 117 115 116 118 116 114 116 121 126 130 133 135 141 146 149 153 155 155 153 147 137 133 134 131 127 127 131 131
50 58 62 69 77 81 84 94 106 115 121 122 118 113 111 109 108 108 107 105 107 110 114 117 123 128 136 142 143 144 145 145 146 142 134 129 130 130 132 140 144 145